This is the latest recevied weather packets stored in our database for station/object YO6SAY-10. If no packets are shown the sender has not sent any weather packets the latest 10 day(s).
| Time | Temp. | Humidity | Pressure | Rain* | Wind** | Luminosity | Snow |
|---|---|---|---|---|---|---|---|
| 1777486424 | 14.44° C | 38% | 952.2 hPa | - | - | - | - |
| 1777485524 | 14.44° C | 38% | 951.8 hPa | - | - | - | - |
| 1777484623 | 15° C | 38% | 951.5 hPa | - | - | - | - |
| 1777483723 | 15.56° C | 38% | 951.4 hPa | - | - | - | - |
| 1777482823 | 16.11° C | 37% | 951 hPa | - | - | - | - |
| 1777481923 | 16.67° C | 37% | 950.7 hPa | - | - | - | - |
| 1777481023 | 17.22° C | 36% | 950.6 hPa | - | - | - | - |
| 1777480123 | 17.78° C | 35% | 950.3 hPa | - | - | - | - |
| 1777479222 | 18.33° C | 34% | 950.4 hPa | - | - | - | - |
| 1777478322 | 18.89° C | 33% | 950.4 hPa | - | - | - | - |
| 1777477422 | 20° C | 32% | 950.2 hPa | - | - | - | - |
| 1777476522 | 22.22° C | 32% | 950.1 hPa | - | - | - | - |
| 1777475622 | 23.89° C | 31% | 949.6 hPa | - | - | - | - |
| 1777474722 | 23.89° C | 31% | 949.6 hPa | - | - | - | - |
| 1777473822 | 25.56° C | 31% | 949.6 hPa | - | - | - | - |
| 1777472921 | 27.78° C | 30% | 949.7 hPa | - | - | - | - |
| 1777472021 | 25° C | 32% | 949.7 hPa | - | - | - | - |
| 1777471121 | 21.67° C | 34% | 949.7 hPa | - | - | - | - |
| 1777470221 | 19.44° C | 35% | 949.8 hPa | - | - | - | - |
| 1777469321 | 18.89° C | 35% | 949.8 hPa | - | - | - | - |
| 1777468421 | 18.33° C | 35% | 949.9 hPa | - | - | - | - |
| 1777467520 | 17.22° C | 36% | 949.9 hPa | - | - | - | - |
| 1777466620 | 17.78° C | 37% | 950 hPa | - | - | - | - |
| 1777465720 | 17.78° C | 36% | 950.2 hPa | - | - | - | - |
| 1777464819 | 17.78° C | 37% | 950.3 hPa | - | - | - | - |
* Rain since midnight (hover to see other rain measurements)
** Current wind speed in m/s (hover to see current wind gust speed)